Regional Weather Roundup
Issued by NWS Cleveland, OH

Home | Current Version | Previous Version | Text Only | Print | Product List | Glossary On
Versions: 1 2 3 4 5 6 7 8 9 10 11 12 13 14 15 16 17 18 19 20 21 22 23 24 25 26 27 28 29 30 31 32 33 34 35 36 37 38 39 40 41 42 43 44 45 46 47 48 49 50
000
ASUS41 KCLE 201712
RWRCLE
OHIO REGIONAL WEATHER ROUNDUP
NATIONAL WEATHER SERVICE WILMINGTON, OH
100 PM EDT WED SEP 20 2017

NOTE: "FAIR" INDICATES FEW OR NO CLOUDS BELOW 12,000 FEET WITH NO
SIGNIFICANT WEATHER AND/OR OBSTRUCTIONS TO VISIBILITY.

OHZ001>008-015>018-024>027-034-035-043-044-201800-
   NORTHWEST OHIO

CITY           SKY/WX    TMP DP  RH WIND       PRES   REMARKS
DEFIANCE       PTSUNNY   77  69  76 VRB3      30.01F
FINDLAY        FAIR      80  66  62 CALM      30.01S
TOLEDO EXPRESS FAIR      77  70  79 S5        30.01F
TOLEDO EXEC    FAIR      80  68  66 SW5       30.01F
LIMA           FAIR      79  69  71 S5        30.02F
$$

OHZ009>014-019>023-028>033-038-089-201800-
   NORTHEAST OHIO

CITY           SKY/WX    TMP DP  RH WIND       PRES   REMARKS
CLE-HOPKINS    FAIR      84  62  47 VRB3      30.04F
CLE-LAKEFRONT  FAIR      79  65  62 NE6       30.01F
CUY CO. ARPT   MOSUNNY   81  66  61 CALM      30.04F
LORAIN-ELYRIA  FAIR      79  62  56 CALM      30.03F
ASHTABULA      CLOUDY    79  66  64 N6        30.05S
AKRON-CANTON   PTSUNNY   79  63  57 SW5       30.05S
WOOSTER        FAIR      79  66  64 S5        30.05F
MANSFIELD      FAIR      79  65  62 VRB3      30.05F
YOUNGSTOWN     PTSUNNY   81  65  58 VRB3      30.05S
$$

OHZ042-051>053-060>062-070>072-077>081-201800-
  SOUTHWEST OHIO

CITY           SKY/WX    TMP DP  RH WIND       PRES   REMARKS
CINC-COVINGTON PTSUNNY   81  71  71 SW5       30.04F
CINC-LUNKEN    FAIR      81  72  74 SW6       30.03F
HAMILTON       FAIR      83  72  69 VRB3      30.04F
DAYTON         PTSUNNY   80  68  66 VRB7      30.04F
WRIGHT-PAT AFB PTSUNNY   80  71  74 CALM      30.03F
DAYTON GENERAL FAIR      80  68  66 VRB5      30.04S
WILMINGTON     FAIR      81  70  69 CALM      30.05S
$$

OHZ036-037-039>041-045>050-054>059-063>069-073>076-082>088-201800-
  CENTRAL AND SOUTHEAST OHIO

CITY           SKY/WX    TMP DP  RH WIND       PRES   REMARKS
COLUMBUS       PTSUNNY   81  67  62 E3        30.03F
OSU AIRPORT    FAIR      80  67  64 CALM      30.03F
BOLTON FIELD   MOSUNNY   79  66  65 CALM      30.04F
RICKENBACK AFB FAIR      79  66  64 E5        30.03F
NEWARK         PTSUNNY   78  65  63 CALM      30.04F
MARION         PTSUNNY   81  65  58 S7        30.03F
LANCASTER      FAIR      78  67  68 CALM      30.05F
ZANESVILLE     LGT RAIN  71  67  87 CALM      30.05F
NEW PHILLY     FAIR      78  65  63 CALM      30.05F
$$



USA.gov is the U.S. government's official web portal to all federal, state and local government web resources and services.